DW4604 Weather Reports


Display with metric or nautical units.
time (UTC)temp
F
wind
direction
speed
MPH
gust
MPH
rain 1hr
in
rain 24hr
in
rain mn
in
humidity
%
barometer
mb
20260507210447 54 0 0.0 0.0 0.01 0.39 0.39 93 1013.1
20260507205447 54 0 0.0 0.0 0.01 0.39 0.39 93 1013.0
20260507204948 54 0 0.0 0.0 0.01 0.39 0.39 93 1012.9
20260507204447 54 0 0.0 0.0 0.01 0.39 0.39 93 1012.8
20260507203447 54 0 0.0 0.0 0.01 0.39 0.39 93 1012.5
20260507202947 54 0 0.0 0.0 0.01 0.39 0.39 93 1012.4
20260507201947 55 0 0.0 0.0 0.00 0.38 0.38 93 1012.4
20260507201447 55 0 0.0 0.0 0.00 0.38 0.38 93 1012.4
20260507200947 55 0 0.0 0.0 0.00 0.38 0.38 93 1012.4
20260507200448 55 0 0.0 0.0 0.00 0.38 0.38 93 1012.7
20260507195947 55 0 0.0 0.0 0.00 0.38 0.38 93 1012.9
20260507195446 54 0 0.0 0.0 0.00 0.38 0.38 93 1012.8
20260507194947 55 0 0.0 0.0 0.00 0.38 0.38 93 1012.7
20260507194447 55 0 0.0 0.0 0.00 0.38 0.38 93 1012.6
20260507192947 55 0 0.0 0.0 0.03 0.38 0.38 92 1012.2
20260507192447 55 0 0.0 0.0 0.06 0.38 0.38 92 1012.0
20260507191947 55 0 0.0 0.0 0.09 0.38 0.38 92 1011.9
20260507191448 55 0 0.0 0.0 0.15 0.38 0.38 92 1011.9
20260507190947 54 0 0.0 0.0 0.20 0.38 0.38 92 1011.9
20260507190448 54 0 0.0 0.0 0.20 0.38 0.38 92 1011.9
20260507185448 55 0 0.0 0.0 0.20 0.38 0.38 92 1012.0
20260507184947 55 0 0.0 0.0 0.20 0.38 0.38 92 1012.0
20260507184447 55 0 0.0 0.0 0.20 0.38 0.38 92 1011.9
20260507183948 55 0 0.0 0.0 0.20 0.37 0.37 92 1011.8
20260507182947 55 0 0.0 0.0 0.17 0.34 0.34 91 1011.8
20260507182448 55 0 0.0 0.0 0.17 0.32 0.32 91 1011.9
20260507181948 55 0 0.0 0.0 0.12 0.27 0.27 91 1011.9
20260507180448 56 0 0.0 0.0 0.17 0.17 0.17 91 1011.5
20260507175447 56 0 0.0 0.0 0.17 0.17 0.17 90 1010.6
20260507174947 56 0 0.0 0.0 0.17 0.17 0.17 90 1010.5
20260507174449 56 0 0.0 0.0 0.17 0.17 0.17 89 1010.4
20260507173947 56 0 0.0 0.0 0.17 0.17 0.17 89 1010.3
20260507173447 57 0 0.0 0.0 0.17 0.17 0.17 88 1010.2
20260507172947 57 0 0.0 0.0 0.17 0.17 0.17 88 1010.2
20260507172447 57 0 0.0 0.0 0.16 0.16 0.16 87 1010.1
20260507171948 57 0 0.0 0.0 0.15 0.15 0.15 87 1010.1
20260507170947 59 0 0.0 0.0 0.02 0.02 0.02 84 1010.3
20260507170448 59 0 0.0 0.0 0.00 0.00 0.00 83 1010.1
20260507165948 59 0 0.0 0.0 0.00 0.00 0.00 82 1009.9
20260507165449 60 0 0.0 0.0 0.00 0.00 0.00 82 1009.7
20260507164949 60 0 0.0 0.0 0.00 0.00 0.00 81 1009.6
20260507164448 60 0 0.0 0.0 0.00 0.00 0.00 81 1009.7
20260507163947 61 0 0.0 0.0 0.00 0.00 0.00 81 1009.9
20260507163447 61 0 0.0 0.0 0.00 0.00 0.00 81 1009.9
20260507161948 62 0 0.0 0.0 0.00 0.00 0.00 78 1009.4
20260507161450 63 0 0.0 0.0 0.00 0.00 0.00 77 1009.4
20260507160949 64 0 0.0 0.0 0.00 0.00 0.00 76 1009.4
20260507160447 65 0 0.0 0.0 0.00 0.00 0.00 72 1009.4
20260507155947 65 0 0.0 0.0 0.00 0.00 0.00 69 1009.4
20260507155447 66 0 0.0 0.0 0.00 0.00 0.00 68 1009.4
20260507154949 67 0 0.0 0.0 0.00 0.00 0.00 70 1009.4
20260507154449 67 0 0.0 0.0 0.00 0.00 0.00 69 1009.3
20260507153948 67 0 0.0 0.0 0.00 0.00 0.00 67 1009.4
20260507153448 67 0 0.0 0.0 0.00 0.00 0.00 68 1009.4
20260507152949 67 0 0.0 0.0 0.00 0.00 0.00 65 1009.4
20260507151447 69 0 0.0 0.0 0.00 0.00 0.00 61 1009.2
20260507150948 69 0 0.0 0.0 0.00 0.00 0.00 62 1009.1
20260507150447 70 0 0.0 0.0 0.00 0.00 0.00 61 1009.1
20260507145947 71 0 0.0 0.0 0.00 0.00 0.00 56 1009.1
20260507145447 71 0 0.0 0.0 0.00 0.00 0.00 58 1009.1
20260507144948 71 0 0.0 0.0 0.00 0.00 0.00 57 1009.0
20260507144447 71 0 0.0 0.0 0.00 0.00 0.00 54 1009.0
20260507143949 71 0 0.0 0.0 0.00 0.00 0.00 55 1009.0
20260507143448 71 0 0.0 0.0 0.00 0.00 0.00 55 1009.1
20260507142948 71 0 0.0 0.0 0.00 0.00 0.00 53 1009.0
20260507141948 71 0 0.0 0.0 0.00 0.00 0.00 56 1009.1
20260507140949 70 0 0.0 0.0 0.00 0.00 0.00 63 1009.0
20260507140448 70 0 0.0 0.0 0.00 0.00 0.00 60 1009.0
20260507135948 70 0 0.0 0.0 0.00 0.00 0.00 61 1009.0
20260507135449 71 0 0.0 0.0 0.00 0.00 0.00 62 1009.2
20260507134949 70 0 0.0 0.0 0.00 0.00 0.00 66 1009.1
20260507134449 69 0 0.0 0.0 0.00 0.00 0.00 69 1009.2
20260507133947 68 0 0.0 0.0 0.00 0.00 0.00 70 1009.3
20260507133447 68 0 0.0 0.0 0.00 0.00 0.00 69 1009.4
20260507132949 68 0 0.0 0.0 0.00 0.00 0.00 69 1009.4
20260507132448 68 0 0.0 0.0 0.00 0.00 0.00 70 1009.3
20260507131948 68 0 0.0 0.0 0.00 0.00 0.00 74 1009.3
20260507131448 68 0 0.0 0.0 0.00 0.00 0.00 73 1009.3
20260507130950 66 0 0.0 0.0 0.00 0.00 0.00 77 1009.4
20260507130449 65 0 0.0 0.0 0.00 0.00 0.00 80 1009.4
20260507125448 65 0 0.0 0.0 0.00 0.00 0.00 77 1009.6
20260507123948 67 0 0.0 0.0 0.00 0.00 0.00 67 1009.6
20260507123448 68 0 0.0 0.0 0.00 0.00 0.00 68 1009.6
20260507122948 68 0 0.0 0.0 0.00 0.00 0.00 68 1009.6
20260507122449 68 0 0.0 0.0 0.00 0.00 0.00 67 1009.5
20260507121449 69 0 0.0 0.0 0.00 0.00 0.00 68 1009.7
20260507120949 68 0 0.0 0.0 0.00 0.00 0.00 68 1009.7
20260507120449 67 0 0.0 0.0 0.00 0.00 0.00 68 1009.6
20260507115448 67 0 0.0 0.0 0.00 0.00 0.00 69 1009.7
20260507114948 66 0 0.0 0.0 0.00 0.00 0.00 67 1009.8
20260507114448 67 0 0.0 0.0 0.00 0.00 0.00 68 1009.8
20260507113948 67 0 0.0 0.0 0.00 0.00 0.00 68 1009.7
20260507113449 67 0 0.0 0.0 0.00 0.00 0.00 67 1009.7
20260507112949 67 0 0.0 0.0 0.00 0.00 0.00 67 1009.7
20260507112448 68 0 0.0 0.0 0.00 0.00 0.00 67 1009.7
20260507111949 68 0 0.0 0.0 0.00 0.00 0.00 65 1009.7
20260507111449 69 0 0.0 0.0 0.00 0.00 0.00 65 1009.7
20260507110449 69 0 0.0 0.0 0.00 0.00 0.00 67 1009.8
20260507105950 69 0 0.0 0.0 0.00 0.00 0.00 67 1009.8
20260507105448 68 0 0.0 0.0 0.00 0.00 0.00 67 1009.7
20260507104949 68 0 0.0 0.0 0.00 0.00 0.00 70 1009.7
20260507104449 67 0 0.0 0.0 0.00 0.00 0.00 69 1009.7
20260507103449 67 0 0.0 0.0 0.00 0.00 0.00 70 1009.6
20260507102949 67 0 0.0 0.0 0.00 0.00 0.00 70 1009.6
20260507102448 67 0 0.0 0.0 0.00 0.00 0.00 69 1009.6
20260507101948 66 0 0.0 0.0 0.00 0.00 0.00 71 1009.6
20260507100948 67 0 0.0 0.0 0.00 0.00 0.00 71 1009.7
20260507095449 67 0 0.0 0.0 0.00 0.00 0.00 68 1009.4
20260507094949 68 0 0.0 0.0 0.00 0.00 0.00 70 1009.5
20260507094449 67 0 0.0 0.0 0.00 0.00 0.00 70 1009.4
20260507093949 67 0 0.0 0.0 0.00 0.00 0.00 69 1009.3
20260507093450 67 0 0.0 0.0 0.00 0.00 0.00 70 1009.3
20260507092949 67 0 0.0 0.0 0.00 0.00 0.00 70 1009.3
20260507092449 67 0 0.0 0.0 0.00 0.00 0.00 70 1009.3
20260507091949 67 0 0.0 0.0 0.00 0.00 0.00 72 1009.2
20260507090949 65 0 0.0 0.0 0.00 0.00 0.00 74 1009.1
20260507090449 65 0 0.0 0.0 0.00 0.00 0.00 73 1009.1
20260507085949 65 0 0.0 0.0 0.00 0.00 0.00 73 1009.0
20260507085448 65 0 0.0 0.0 0.00 0.00 0.00 73 1008.9
20260507084449 66 0 0.0 0.0 0.00 0.00 0.00 73 1008.9
20260507083950 65 0 0.0 0.0 0.00 0.00 0.00 74 1008.8
20260507083450 65 0 0.0 0.0 0.00 0.00 0.00 76 1008.7
20260507082949 64 0 0.0 0.0 0.00 0.00 0.00 77 1008.7
20260507082450 64 0 0.0 0.0 0.00 0.00 0.00 77 1008.6
20260507081950 64 0 0.0 0.0 0.00 0.00 0.00 76 1008.5
20260507081449 64 0 0.0 0.0 0.00 0.00 0.00 76 1008.5
20260507080949 64 0 0.0 0.0 0.00 0.00 0.00 75 1008.5
20260507080449 65 0 0.0 0.0 0.00 0.00 0.00 73 1008.5
20260507075949 66 0 0.0 0.0 0.00 0.00 0.00 74 1008.5
20260507075449 65 0 0.0 0.0 0.00 0.00 0.00 76 1008.4
20260507074951 64 0 0.0 0.0 0.00 0.00 0.00 76 1008.4
20260507073949 64 0 0.0 0.0 0.00 0.00 0.00 77 1008.1
20260507073449 63 0 0.0 0.0 0.00 0.00 0.00 78 1008.0
20260507072950 63 0 0.0 0.0 0.00 0.00 0.00 78 1008.0
20260507072450 63 0 0.0 0.0 0.00 0.00 0.00 79 1008.0
20260507071450 62 0 0.0 0.0 0.00 0.00 0.00 78 1008.0
20260507070949 63 0 0.0 0.0 0.00 0.00 0.00 78 1007.8
20260507070450 63 0 0.0 0.0 0.00 0.00 0.00 79 1007.7
20260507065951 63 0 0.0 0.0 0.00 0.00 0.00 78 1007.6
20260507065451 63 0 0.0 0.0 0.00 0.00 0.00 79 1007.7
20260507064950 62 0 0.0 0.0 0.00 0.00 0.00 78 1007.7
20260507064450 62 0 0.0 0.0 0.00 0.00 0.00 79 1007.8
20260507063949 62 0 0.0 0.0 0.00 0.00 0.00 78 1007.7
20260507063449 62 0 0.0 0.0 0.00 0.00 0.00 79 1007.6
20260507062450 61 0 0.0 0.0 0.00 0.00 0.00 80 1007.6
20260507061949 61 0 0.0 0.0 0.00 0.00 0.00 80 1007.6
20260507061450 61 0 0.0 0.0 0.00 0.00 0.00 81 1007.5
20260507060449 60 0 0.0 0.0 0.00 0.00 0.00 81 1007.5
20260507055949 60 0 0.0 0.0 0.00 0.00 0.00 81 1007.5
20260507055450 60 0 0.0 0.0 0.00 0.00 0.00 81 1007.4
20260507054949 60 0 0.0 0.0 0.00 0.00 0.00 81 1007.3
20260507054450 60 0 0.0 0.0 0.00 0.00 0.00 81 1007.3
20260507053951 60 0 0.0 0.0 0.00 0.00 0.00 80 1007.2
20260507052951 60 0 0.0 0.0 0.00 0.00 0.00 80 1007.1
20260507052450 60 0 0.0 0.0 0.00 0.00 0.00 81 1007.1
20260507051950 60 0 0.0 0.0 0.00 0.00 0.00 81 1007.0
20260507051450 60 0 0.0 0.0 0.00 0.00 0.00 81 1007.0
20260507045950 60 0 0.0 0.0 0.00 0.00 0.00 80 1006.8
20260507045449 60 0 0.0 0.0 0.00 0.00 0.00 80 1006.8
20260507044951 60 0 0.0 0.0 0.00 0.00 0.00 80 1006.7
20260507044449 60 0 0.0 0.0 0.00 0.00 0.00 80 1006.7
20260507043950 60 0 0.0 0.0 0.00 0.00 0.00 80 1006.6
20260507043450 60 0 0.0 0.0 0.00 0.00 0.00 80 1006.5
20260507042950 60 0 0.0 0.0 0.00 0.00 0.00 80 1006.5
20260507041950 59 0 0.0 0.0 0.00 0.00 0.00 81 1006.4
20260507041449 59 0 0.0 0.0 0.00 0.00 0.00 82 1006.4
20260507040951 58 0 0.0 0.0 0.00 0.00 0.00 83 1006.3
20260507040451 58 0 0.0 0.0 0.00 0.00 0.00 83 1006.2
20260507035950 58 0 0.0 0.0 0.00 0.00 0.00 84 1006.2
20260507035451 57 0 0.0 0.0 0.00 0.00 0.00 85 1006.1
20260507034949 57 0 0.0 0.0 0.00 0.00 0.00 84 1006.1
20260507034449 57 0 0.0 0.0 0.00 0.00 0.00 85 1006.2
20260507033450 57 0 0.0 0.0 0.00 0.00 0.00 85 1006.0
20260507032450 57 0 0.0 0.0 0.00 0.00 0.00 86 1005.8
20260507031450 57 0 0.0 0.0 0.00 0.00 0.00 85 1005.8
20260507030950 57 0 0.0 0.0 0.00 0.00 0.00 85 1005.7
20260507025950 56 0 0.0 0.0 0.00 0.00 0.00 85 1005.6
20260507025450 56 0 0.0 0.0 0.00 0.00 0.00 85 1005.6
20260507024450 56 0 0.0 0.0 0.00 0.00 0.00 85 1005.7
20260507023950 56 0 0.0 0.0 0.00 0.00 0.00 85 1005.7
20260507023451 56 0 0.0 0.0 0.00 0.00 0.00 85 1005.6
20260507022951 56 0 0.0 0.0 0.00 0.00 0.00 85 1005.6
20260507022452 56 0 0.0 0.0 0.00 0.00 0.00 85 1005.6
20260507021950 56 0 0.0 0.0 0.00 0.00 0.00 85 1005.6
20260507020950 55 0 0.0 0.0 0.00 0.00 0.00 85 1005.5
20260507020451 55 0 0.0 0.0 0.00 0.00 0.00 85 1005.5
20260507015952 55 0 0.0 0.0 0.00 0.00 0.00 85 1005.4
20260507015450 55 0 0.0 0.0 0.00 0.00 0.00 85 1005.4
20260507014950 55 0 0.0 0.0 0.00 0.00 0.00 84 1005.4
20260507013950 55 0 0.0 0.0 0.00 0.00 0.00 84 1005.2
20260507013450 55 0 0.0 0.0 0.00 0.00 0.00 83 1005.3
20260507012950 55 0 0.0 0.0 0.00 0.00 0.00 83 1005.4
20260507011950 55 0 0.0 0.0 0.00 0.00 0.00 82 1005.4
20260507011450 56 0 0.0 0.0 0.00 0.00 0.00 82 1005.4
20260507010951 56 0 0.0 0.0 0.00 0.00 0.00 81 1005.4
20260507010452 56 0 0.0 0.0 0.00 0.00 0.00 80 1005.3
20260507005950 56 0 0.0 0.0 0.00 0.00 0.00 80 1005.2
20260507005450 57 0 0.0 0.0 0.00 0.00 0.00 79 1005.3
20260507004952 57 0 0.0 0.0 0.00 0.00 0.00 79 1005.3
20260507004450 58 0 0.0 0.0 0.00 0.00 0.00 79 1005.3
20260507003951 58 0 0.0 0.0 0.00 0.00 0.00 78 1005.2
20260507003451 58 0 0.0 0.0 0.00 0.00 0.00 78 1005.3
20260507002951 58 0 0.0 0.0 0.00 0.00 0.00 78 1005.2
20260507002452 58 0 0.0 0.0 0.00 0.00 0.00 77 1005.2
20260507001951 59 0 0.0 0.0 0.00 0.00 0.00 77 1005.2
20260507001451 59 0 0.0 0.0 0.00 0.00 0.00 77 1005.1
20260507000950 60 0 0.0 0.0 0.00 0.00 0.00 76 1005.1
20260507000451 60 0 0.0 0.0 0.00 0.00 0.00 75 1005.2
20260506235951 61 0 0.0 0.0 0.00 0.00 0.00 74 1005.2
20260506235450 61 0 0.0 0.0 0.00 0.00 0.00 73 1005.2
20260506233950 62 0 0.0 0.0 0.00 0.00 0.00 72 1005.3
20260506233451 62 0 0.0 0.0 0.00 0.00 0.00 72 1005.2
20260506232952 62 0 0.0 0.0 0.00 0.00 0.00 71 1005.2
20260506231951 63 0 0.0 0.0 0.00 0.00 0.00 70 1005.3
20260506231450 63 0 0.0 0.0 0.00 0.00 0.00 69 1005.2
20260506230952 63 0 0.0 0.0 0.00 0.00 0.00 69 1005.3
20260506230451 64 0 0.0 0.0 0.00 0.00 0.00 69 1005.3
20260506225951 64 0 0.0 0.0 0.00 0.00 0.00 68 1005.3
20260506225451 64 0 0.0 0.0 0.00 0.00 0.00 68 1005.3
20260506224950 65 0 0.0 0.0 0.00 0.00 0.00 68 1005.3
20260506224450 65 0 0.0 0.0 0.00 0.00 0.00 68 1005.3
20260506223952 64 0 0.0 0.0 0.00 0.00 0.00 68 1005.2
20260506223451 64 0 0.0 0.0 0.00 0.00 0.00 69 1005.3
20260506222952 64 0 0.0 0.0 0.00 0.00 0.00 69 1005.3
20260506221951 62 0 0.0 0.0 0.00 0.00 0.00 71 1005.3
20260506221451 62 0 0.0 0.0 0.00 0.00 0.00 71 1005.2
20260506220951 62 0 0.0 0.0 0.00 0.00 0.00 71 1005.1
20260506220453 62 0 0.0 0.0 0.00 0.00 0.00 72 1005.1
20260506215952 61 0 0.0 0.0 0.00 0.00 0.00 73 1005.2
20260506215452 61 0 0.0 0.0 0.00 0.00 0.00 74 1005.2
20260506214952 61 0 0.0 0.0 0.00 0.00 0.00 75 1005.2
20260506214452 61 0 0.0 0.0 0.00 0.00 0.00 74 1005.2
20260506213452 61 0 0.0 0.0 0.00 0.00 0.00 73 1005.2
20260506212952 62 0 0.0 0.0 0.00 0.00 0.00 72 1005.2
20260506212451 62 0 0.0 0.0 0.00 0.00 0.00 72 1005.3
20260506210951 62 0 0.0 0.0 0.00 0.00 0.00 71 1005.3